Location: Wildlife_Club
(35.6000°N, 81.4330°W)
Time: 08:13:01
(UTC-04:00)

deb Explorer IX - Visible Passes

Search period start: 15 October 2019 00:00
Search period end: 25 October 2019 00:00
Orbit: 544 x 1107 km, 38.8° (Epoch: 14 October)

Date Brightness Start Highest point End Pass type
(mag) Time Alt. Az. Time Alt. Az. Time Alt. Az.
15 Oct ? 19:34:21 10° WNW 19:41:20 75° N 19:47:31 16° E visible
15 Oct ? 21:21:50 10° WNW 21:28:54 61° SSW 21:28:54 61° SSW visible
16 Oct ? 19:12:27 10° WNW 19:19:18 75° N 19:26:41 10° E visible
16 Oct ? 20:59:52 10° WNW 21:06:55 60° SSW 21:08:18 52° SSE visible
16 Oct ? 22:48:38 10° W 22:49:41 13° W 22:49:41 13° W visible
17 Oct ? 20:37:55 10° WNW 20:44:52 59° SSW 20:47:48 36° SE visible
17 Oct ? 22:26:41 10° W 22:29:11 17° WSW 22:29:11 17° WSW visible
18 Oct ? 20:16:00 10° WNW 20:22:50 58° SSW 20:27:24 23° SE visible
18 Oct ? 22:04:45 10° W 22:08:48 19° SW 22:08:48 19° SW visible
19 Oct ? 19:54:05 10° WNW 20:00:47 57° SSW 20:07:09 13° SE visible
19 Oct ? 21:42:51 10° W 21:47:38 19° SW 21:48:34 19° SSW visible
20 Oct ? 19:32:12 10° WNW 19:38:46 56° SSW 19:45:52 10° SE visible
20 Oct ? 21:20:58 10° W 21:25:37 19° SW 21:28:30 15° SSW visible
21 Oct ? 19:10:20 10° WNW 19:16:45 54° SSW 19:23:46 10° SE visible
21 Oct ? 20:59:07 10° W 21:03:35 18° SW 21:08:11 10° S visible
22 Oct ? 20:37:18 10° WSW 20:41:34 17° SW 20:46:00 10° S visible
23 Oct ? 20:15:32 10° WSW 20:19:34 16° SW 20:23:46 10° S visible
24 Oct ? 19:53:48 10° WSW 19:57:34 16° SW 20:01:31 10° S visible
